Miscellaneous Local Product
Issued by NWS Hastings, NE

Home | Current Version | Previous Version | Graphics & Text | Print | Product List | Glossary On
Versions: 1 2 3 4 5 6 7 8 9 10 11 12 13 14 15 16 17 18 19 20 21 22 23 24 25 26 27 28 29 30 31 32 33 34 35 36 37 38 39 40 41 42 43 44 45 46 47 48 49 50
000
AXUS43 KGID 292102
MISGRI

GID CWA HOURLY WEATHER ROUNDUP
NATIONAL WEATHER SERVICE HASTINGS NE
400 PM CDT FRI AUG 29 2014

NOTE: "FAIR" INDICATES FEW OR NO CLOUDS BELOW 12,000 FEET WITH NO
SIGNIFICANT WEATHER AND/OR OBSTRUCTIONS TO VISIBILITY.

...SOUTH CENTRAL NEBRASKA...

CITY           SKY/WX    TMP DP  RH WIND       PRES   REMARKS
GRAND ISLAND   TSTM      72  67  84 NW7       29.83F
HASTINGS       PTSUNNY   78  63  59 VRB3      29.83S
KEARNEY        PTSUNNY   82  61  47 NW14      29.85R
ORD            MOSUNNY   79  66  64 NE9       29.83S
YORK           CLOUDY    70 N/A N/A SW6       29.81F
AURORA         DRIZZLE   72  69  92 CALM      29.82S
LEXINGTON      SUNNY     84  58  41 NW8       29.86R
HOLDREGE       MOSUNNY   81  59  48 NW10      29.85S
HEBRON         CLOUDY    74  64  73 SW5       29.82F

...NEBRASKA PANHANDLE...

CITY           SKY/WX    TMP DP  RH WIND       PRES   REMARKS
CHADRON        SUNNY     75  57  53 N9        30.00F
ALLIANCE       MOSUNNY   77  53  43 N16       30.01S
SCOTTSBLUFF    PTSUNNY   79  52  38 VRB3      30.01F
SIDNEY         MOSUNNY   84  51  31 N13       30.02F

...WESTERN AND NORTH CENTRAL NEBRASKA...

CITY           SKY/WX    TMP DP  RH WIND       PRES   REMARKS
VALENTINE      SUNNY     82  60  47 N20G28    29.88S
AINSWORTH      PTSUNNY   82  61  49 N13       29.87S
ONEILL         PTSUNNY   74  69  84 N6        29.84F
BROKEN BOW     MOSUNNY   82  58  43 N14G22    29.85S
IMPERIAL       MOSUNNY   84  53  34 N14       29.93F
NORTH PLATTE   PTSUNNY   81  54  39 N14       29.87F
MCCOOK         SUNNY     87  51  28 N7        29.88F

...EASTERN NEBRASKA...

CITY           SKY/WX    TMP DP  RH WIND       PRES   REMARKS
NORFOLK        CLOUDY    74  66  76 W7        29.79F
SO SIOUX CITY  CLOUDY    75  67  76 W6        29.77F
TEKAMAH        CLOUDY    74  69  85 MISG      29.75F
COLUMBUS       CLOUDY    72  64  78 W8        29.80F
ALBION         RAIN      70  66  86 W3        29.82S
OMAHA EPPLEY   CLOUDY    74  69  85 S12       29.77F
OFFUTT AFB     CLOUDY    70  70  99 SW7       29.77F
MILLARD        PTSUNNY   77  69  75 S7        29.76S
LINCOLN        CLOUDY    74  63  68 W8        29.80R
NEBRASKA CITY  MOSUNNY   72  71  96 S5        29.79F
BEATRICE       LGT RAIN  71  68  90 W8        29.80S
FALLS CITY     PTSUNNY   75  70  84 NE5       29.78F

...NORTHERN KANSAS...

CITY           SKY/WX    TMP DP  RH WIND       PRES   REMARKS
GOODLAND       SUNNY     84  45  25 N17G23    29.96F
HILL CITY      SUNNY     86  54  33 NW12      29.86F
NORTON         PTCLDY    88  46  23 N8        29.86R
PHILLIPSBURG   SUNNY     84  54  34 NW12      29.83F
SMITH CENTER   MOSUNNY   81  63  54 N6        29.83F
BELOIT         MOSUNNY   82  64  54 W7        29.81S
HAYS           MOSUNNY   82  61  47 W7        29.86S
RUSSELL        SUNNY     85  60  42 W7        29.83F
CONCORDIA      CLOUDY    81  68  64 SW12      29.82F
SALINA         MOSUNNY   89  60  37 SW13G23   29.81F
TOPEKA         SUNNY     87  66  49 S14G20    29.79F



USA.gov is the U.S. government's official web portal to all federal, state and local government web resources and services.